Timeline UpdatesTrip UpdatesNews PostsPvt Posts♥♥Travel TipsAdmin PostsConv PostsFollowed PostsChat RequestsBlog PostsPNR Posts

Disclaimer
Search
 
 
Thu Oct 23, 2014 07:10:19 ISTHomeTrainsΣChainsAtlasPNRForumGalleryNewsFAQTripsMembersLoginFeedback
No Recent News for this Train
Other Trains in the News **new
Latest...
.
Sat Sep 13, 2014 (05:37PM)
⇐ Return Journey: Train# 58117

58118/Gondia-Jharsuguda Passenger (UnReserved)

Time-Table HAS CHANGED.
Sep 13 2014 (5:37PM)
Change Departure Station:
Change Arrival Station:
Post a Train Travel TipPost a Train Travel Tip **new
Post a Comment/Question/Picture/VideoPost a Comment/Question/Picture/Video
Pantry/Catering
???
RSA - Rake Sharing
Rake/Coach Composition
Loco
BIA WAM-4
News    PNR    Forum    Time-Table    Availability    Fare Chart    Map    Arr/Dep History    Trips    Gallery    ΣChains    X/O    Timeline    
Travel Time: 3h 5m    15 halts    Distance: 135 km    Avg Speed: 43 km/hr
Type: Passenger
Zone: SER/South Eastern
Departs @ 05:05 (Avg 1m late)
Platform# ???
SMTWTFS
Gondia Junction/G 
Arrives @ 08:10 (Avg 8m late)
Platform# ???
SMTWTFS
Durg Junction/DURG 

15 halts. 15 intermediate Stations between Gondia Junction and Durg Junction

Show ALL intermediate Stations  Show Old Time-Table

#TrkCodeStation NameX/OArrivesAvgDepartsAvgHaltPFDay#KmSpeedElevZoneAddress
1/==/GGondia Junction (7)»  -05:00 05:05+1--10.079316mSECRGondia 441601, Maharashtra
2/==/GDMGudma (2)  05:10 05:14+805:11 05:15+91m--111.965323mSECRGondia, Maharashtra
3/==/AGNAmgaon (2)X  05:20 05:25+805:22 05:27+102m--122.873317mSECRGondia, Maharashtra
4/==/DNLDhanoli (2)X  05:28 05:33-05:29 05:34-1m--130.175310mSECRAmgaon, Maharashtra
5/==/SKSSalekasa (2)X  05:36 05:40+1205:38 05:42+142m--137.553312mSECRRajnandgaon, Chhattisgarh
6/==/DKSDarekasa (2)  05:51 05:55+1405:52 05:56+151m--149.166381mSECRRajnandgaon, Chhattisgarh
7/==/BTLBortalao (2)  05:59 06:03+1606:00 06:04+181m--156.853409mSECRRajnandgaon, Chhattisgarh
8/==/PJBPaniajob (2)  06:12 06:14+1706:13 06:15+181m--165.646363mSECRRajnandgaon, Chhattisgarh
9/==/DGGDongargarh (2)  06:25+1406:35+1310m--173.365 SECRDongargarh, Chhattisgarh
10/==/JTRJatkanhar  06:41+1606:42+171m--179.840330mSECRRajnandgaon, Chhattisgarh
11/==/MUAMusraX  06:52+1406:54+142m--186.559323mSECRRajnandgaon, Chhattisgarh
12/==/BAKLBakal  07:02+1207:03+131m--194.353318mSECRRajnandgaon, Chhattisgarh
13/==/RJNRaj Nandgaon (3)X  07:15+1207:20+125m--1104.859313mSECRRajnandgaon, Chhattisgarh
14/==/PMSParmalkasaX  07:28+807:29+81m--1112.770300mSECRRajnandgaon, Chhattisgarh
15/==/MUPMurhiparO  07:35+1307:37+132m--1119.864319mSECRRajnandgaon, Chhattisgarh
16/==/RSMRasmaraXO  07:44+1007:45+101m--1127.219292mSECRRasmada, Chhattisgarh
17/==/DURGDurg Junction (6)•  08:10+808:15+105m--1135.339299mSECRPh: 91-788-2322059, Chhattisgarh
18/==/BQRBhilai Nagar (2)X  08:22+2008:24+212m--1139.853298mSECRBhilai, Chhattisgarh
19/==/BPHBBhilai Power House (3)X  08:29+008:31+02m--1144.256312mSECRBhilai, Chhattisgarh
20/==/BIABhilai (2)  08:36+1608:38+152m--1148.956309mSECRBhilai, Chhattisgarh
21/==/ new halt!!  08:42-08:44-2m--1152.6560m???
22/==/ new halt!!  08:47-08:48-1m--1155.4460m???
23/==/KMIKumhari (2)X  08:54+2308:56+232m--1160.062287mSECRKumhari, Chhattisgarh
24/==/SZBSarona Cabin (2)  09:02+2409:04+252m--1166.248282mSECRRaipur, Chhattisgarh
25/==/SRWNSaraswatinagar (2)X  09:09-09:11-2m--1170.115291mSECRRaipur, Chhattisgarh
26/==/RRaipur Junction (6)  09:20+909:27+107m--1172.431297mSECRRaipur, Chhattisgarh
27/==/WRCWRS Colony PH  09:32-09:33-1m--1175.036286mSECRRaipur, Chhattisgarh
28/==/URKUrkuraX  09:39 09:38+2409:41 09:40+242m--1178.086275mSECRRaipur, Chhattisgarh
29/==/MDHMandharX  09:47 09:46+2509:49 09:48+272m--1186.664281mSECRDonde Kalan, Chhattisgarh
30/==/SLHSiliariX  09:58 09:57+2910:00 09:59+312m--1196.154280mSECRBanjari Rd, Chhattisgarh
31/==/TLDTilda (3)  10:17 10:15+3610:19 10:17+362m--1210.649 SECRBanjari Rd, Chhattisgarh
32/==/HNHathbandhX  10:32 10:30+3310:34 10:32+412m--1221.384283mSECRRaipur, Chhattisgarh
33/==/BYTBhatapara (4)XO  10:45 10:43+3210:47 10:45+332m--1236.688270mSECRBanjari Road, Chhattisgarh
34/==/NPINipaniaX  10:58 10:55+5211:00 10:57+522m--1251.441259mSECRNational Highway 200, Chhattisgarh
35/==/DGSDagori  11:13 11:09+5011:15 11:11+512m--1259.677254mSECRCollege Road, Chhattisgarh
36/==/BYLBelhaX  11:21 11:17+4911:23 11:19+512m--1267.370269mSECRCollege Road, Chhattisgarh
37/==/CHBTChakarbhatha  11:28 11:24-11:30 11:26-2m--1273.146285mSECRBilaspur, Chhattisgarh
38/==/DPHDadhapara (3)X  11:35 11:30+1:0111:40 11:35+1:025m--1276.24272mSECRBilaspur, Chhattisgarh
39/==/BSPBilaspur Junction (8)  13:15+613:45+830m21282.849271mSECRBilaspur, Chhattisgarh
40/==/GTWGatora  13:54 13:53+613:57 13:55+53 2m--1289.357268mSECRBilaspur, Chhattisgarh
41/==/JRMGJairamnagar  14:05 14:03+914:07 14:05+82m--1297.067272mSECRNational Highway 200, Chhattisgarh
42/==/KTSHKotmi Sonar Halt  14:13 14:11-14:15 14:13-2m--1303.764266mSECRKotmisunar, Chhattisgarh
43/==/AKTAkaltara (4)X  14:21 14:19+1714:23 14:21+172m--1310.158284mSECRDist. Janjgir Champa, Chhattisgarh
44/==/KPNAKapan (1)  14:30 14:29-14:32 14:31-2m11317.848263mSECRNational Highway 200, Chhattisgarh
45/==/NIANailaX  14:45 14:40+1414:50 14:45+135m--1325.043273mSECRJanjgir, Chhattisgarh
46/==/CPHChampa Junction (3)  15:05 15:00+815:20 15:10+1315 10m--1335.990264mSECRNational Highway 200 (07819-245767), Chhattisgarh
47/==/SGRDSaragaon RoadX  15:28 15:16-15:30 15:18-2m--1344.865254mSECRNational Highway 200, Chhattisgarh
48/==/BUABaradwarX  15:38 15:24+2315:40 15:26+232m--1351.471 SECRJanjgir-Champa, Chhattisgarh
49/==/JDDAJetha  15:46 15:32-15:48 15:34-2m--1358.578244mSECRNational Highway 200, Chhattisgarh
50/==/SKTSakti (4)X  16:15 15:40+1616:30 15:45+2315 5m--1366.256237mSECRJanjgir-Champa, Chhattisgarh
51/==/JDIJharradihX  16:38 15:56+2616:40 15:58+332m--1376.431247mSECRRaigarh, Chhattisgarh
52/==/KHSKharsiaXO  16:58 16:08+2117:03 16:10+225 2m--1381.651 SECRNational Highway 200, Chhattisgarh
53/==/ROBRobertsonX  17:10 16:20+2717:12 16:22+312m--1390.177239mSECRRaigarh, Chhattisgarh
54/==/BEFBhupdeopur  17:20 16:29+3617:22 16:31+362m--1399.279243mSECRRaigarh, Chhattisgarh
55/==/KDTRKirodimalnagar (5)X  17:29 16:38+4017:31 16:40+452m--1408.429240mSECRRaigarh, Chhattisgarh
56/==/RIGRaigarh (3)  17:45 16:55+1917:55 17:05+1910m--1415.697220mSECRRaigarh, Chhattisgarh
57/==/KRLKotarlia  18:03 17:11+4918:05 17:13+492m--1425.373229mSECRRaigarh, Chhattisgarh
58/==/JMGJamga  18:10 17:20+5118:12 17:22+592m--1433.872233mSECRJamga Station, Chhattisgarh
59/==/DAODaghora  18:28 17:32+3918:30 17:34+462m--1445.856269mSECRRaigarh, Chhattisgarh
60/==/HGRHimgirX  18:38 17:42+5718:40 17:44+1:092m--1453.281275mSECRNational Highway 200, Chhattisgarh
61/==/BPHBelpahar  18:50 17:54+5218:52 17:56+1:022m--1466.741 SECRBelpahar, Odisha
62/==/BRJNBrajrajnagar  19:10 18:09+1:0119:15 18:11+1:005 2m--1475.623212mSECRBrajrajnagar, Odisha
63/==/IBIb  19:23 18:18+5919:25 18:20+1:102m--1478.214207mSECRJharsuguda, Odisha
64/==/JSGJharsuguda Junction (5)  20:15 19:00+24---1487.2-236mSERJharsuguda, Odisha
Scroll to Top
Scroll to Bottom